Flag for Ukraine Weather past 2 weeks in Odesa, Ukraine

Now
41 °F

Low clouds.


Feels Like: 37 °F
Forecast: 35 / 43 °F
Wind: 6 mph from North

Location: Odesa Airport

Current Time: Dec 18, 2014 at 2:53:01 PM

Latest Report: Dec 18, 2014 at 2:00 PM


Visibility: N/A

Pressure: 29.95 "Hg

Humidity: 87%

Dew point: 37 °F

Location of OdesaLocation

Historic Weather in Odesa — Graph

°F

Odesa temperature yesterday

Maximum temperature yesterday: 48 °F (at 9:30 AM)
Minimum temperature yesterday: 39 °F (at 11:30 PM)
Average temperature yesterday: 46 °F

Past Weeks' High & Low Weather Summary

 TemperatureHumidityPressure
High48 °F (Dec 13, 1:00 PM)100% (Dec 4, 10:00 PM)30.48 "Hg (Dec 4, 10:00 PM)
Low23 °F (Dec 4, 2:30 AM)59% (Dec 5, 4:00 PM)29.83 "Hg (Dec 17, 4:30 PM)
Average34 °F93%30.16 "Hg
* Reported Dec 3 1:00 PM — Dec 18 1:30 PM, Odesa, Weather by CustomWeather, © 2014

Note: Actual official high and low records may vary slightly from our data, if they occured in-between our weather recording intervals... More about our weather records

Advertising

Odesa weather history for previous 24 hours

 ConditionsComfort  
Time TempWeatherWind HumidityBarometerVisibility
1:30 PM
Dec 18
41 °FLow clouds.6 mph87%29.95 "HgN/A
1:00 PM41 °FLow clouds.6 mph87%29.95 "HgN/A
12:30 PM39 °FDrizzle. Low clouds.6 mph93%29.95 "HgN/A
12:00 PM39 °FDrizzle. Fog.8 mph93%29.95 "Hg3 mi
11:30 AM39 °FDrizzle. Fog.8 mph93%29.95 "Hg2 mi
11:00 AM39 °FLow clouds.10 mph93%29.98 "HgN/A
10:30 AM39 °FFog.8 mph93%29.95 "Hg2 mi
10:00 AM39 °FFog.8 mph93%29.98 "Hg3 mi
9:30 AM39 °FFog.10 mph93%29.95 "Hg3 mi
9:02 AM39 °FFog.10 mph93%29.95 "Hg3 mi
8:30 AM39 °FFog.8 mph93%29.95 "Hg3 mi
8:00 AM39 °FFog.10 mph93%29.92 "Hg3 mi
7:30 AM39 °FFog.8 mph93%29.92 "Hg3 mi
7:00 AM39 °FFog.10 mph93%29.92 "Hg3 mi
6:30 AM39 °FLow clouds.13 mph93%29.92 "HgN/A
5:30 AM39 °FFog.10 mph93%29.92 "Hg3 mi
5:02 AM37 °FFog.10 mph100%29.92 "Hg2 mi
4:30 AM37 °FFog.13 mph100%29.89 "Hg2 mi
4:00 AM37 °FFog.13 mph100%29.89 "Hg1 mi
3:30 AM39 °FFog.15 mph93%29.89 "Hg2 mi
3:03 AM39 °FFog.15 mph93%29.89 "Hg2 mi
2:30 AM39 °FFog.13 mph93%29.89 "Hg2 mi
2:00 AM39 °FFog.10 mph100%29.89 "Hg1 mi
1:30 AM39 °FFog.8 mph93%29.89 "Hg2 mi
1:00 AM39 °FFog.6 mph93%29.89 "Hg2 mi
12:30 AM41 °FFog.6 mph93%29.89 "Hg3 mi
12:00 AM39 °FFog.6 mph100%29.89 "Hg1 mi
11:30 PM
Dec 17
39 °FLight fog.3 mph100%29.86 "Hg0 mi
11:00 PM41 °FFog.No wind100%29.86 "Hg0 mi
10:50 PM41 °FFog.No wind100%29.86 "Hg0 mi
10:30 PM43 °FLight fog.1 mph93%29.86 "Hg0 mi
10:00 PM43 °FFog.3 mph93%29.86 "Hg1 mi
9:30 PM43 °FFog.6 mph100%29.86 "Hg2 mi
9:03 PM45 °FFog.No wind93%29.86 "Hg2 mi
8:46 PM45 °FFog.6 mph93%29.86 "Hg1 mi
8:30 PM45 °FFog.6 mph93%29.86 "Hg3 mi
8:00 PM45 °FFog.3 mph93%29.86 "Hg3 mi
7:30 PM45 °FFog.6 mph100%29.86 "Hg2 mi
7:00 PM45 °FFog.3 mph93%29.86 "Hg1 mi
6:30 PM45 °FFog.6 mph100%29.86 "Hg2 mi
6:00 PM45 °FFog.8 mph100%29.86 "Hg2 mi
5:45 PM45 °FFog.8 mph93%29.86 "Hg2 mi
5:30 PM45 °FFog.8 mph100%29.83 "Hg2 mi
4:30 PM43 °FFog.6 mph100%29.83 "Hg1 mi
4:00 PM45 °FFog.8 mph93%29.86 "Hg3 mi
3:30 PM48 °FSunny.10 mph87%29.86 "Hg10 mi
3:00 PM48 °FBroken clouds.10 mph94%29.86 "HgN/A
2:30 PM46 °FFog.10 mph100%29.86 "Hg2 mi
2:00 PM46 °FFog.10 mph100%29.86 "Hg2 mi
Weather by CustomWeather, © 2014

See weather overviewHow to use our weather pages